CZ-4B R/B (28059 NORAD) Tracking and Keplerian Element Data

This shows tracking and keplerian element data for the satellite.

Feedback or suggestion? Click here.




ElementValue
Catalog28059
NameCZ-4B R/B
Epoch Orbit17499
Epoch Day353.88555466
Epoch Year2025
RAAN340.7195
Inclination98.6791
Eccentricity0.0049284
Argument of Perigee114.6636
Mean Anonmoly245.9703
Mean Motion14.54915691
Decay Rate2.84E-06
L11 28059U 03049C 25353.88555466 .00000284 00000+0 76746-4 0 9992
L22 28059 98.6791 340.7195 0049284 114.6636 245.9703 14.54915691174994



Live tracking and technical data element details for CZ-4B R/B (NORAD 28059). CZ-4B R/B can be tracked NOW for your location showing map with azimuth and elevation plus other details from your city location.







IsCatalogInMostPopularTable: catalog: 28059, numindb: 520
Update: records affected: 1



GetName: 28059 CZ-4B R/B

Hit Count: updated at: Sat, 14 Mar 2026 02:27:51 GMT